Location: Passau
(48.5830°N, 13.4830°E)
Time: 06:21:32
(UTC+02:00)

Vanguard 1 - Pass Details

Date: 28 July 2021
Orbit: 652 x 3831 km, 34.3° (Epoch: 16 September)

Event Time Altitude Azimuth Distance (km) Brightness Sun altitude
Rises 16:06:43 0° 257° (WSW) 4,100 14.0 44.1°
Reaches altitude 10° 16:09:20 10° 248° (WSW) 3,445 14.0 43.7°
Maximum altitude 16:17:15 34° 187° (S) 2,906 13.2 42.5°
Drops below altitude 10° 16:30:22 10° 131° (SE) 5,730 13.8 40.5°
Sets 16:36:24 0° 125° (SE) 7,221 14.2 39.5°
